Location: Cheyres
(46.8153°N, 6.7877°E)
Time: 18:51:14
(UTC+00:00)

AO-109 - Pass Details

Date: 11 July 2022
Orbit: 469 x 506 km, 60.7° (Epoch: 16 August)

Event Time Altitude Azimuth Distance (km) Brightness Sun altitude
Exits shadow 23:48:15 25° 95° (E) 1,008 ? -21.2°
Drops below altitude 10° 23:50:29 10° 63° (ENE) 1,665 ? -21.1°
Sets 23:52:50 0° 52° (NE) 2,557 ? -21.1°
